# Land Stadt Wetter Temperatur Luftdruck Luftfeuchtigkeit Sichtweite Windgeschwindigkeit Windrichtung Ortszeit
1 de München Clouds 14 962 76 10000 5 165 02.08.2018 14:21
2 is Reykjavik Rain 10 989 93 8000 11 350 02.08.2018 14:22
3 ae Dubai Clouds 34 992 79 10000 11 200 02.08.2018 14:21
4 qa Doha Clear 36 993 22 10000 8 240 02.08.2018 14:23
5 in Mumbai Haze 29 993 89 3000 15 240 02.08.2018 14:22
6 in Nagpur Haze 25 995 94 3000 11 249 02.08.2018 14:21
7 iq Bagdad Clear 34 995 26 10000 15 300 02.08.2018 14:22
8 gb Glasgow Clouds 17 998 93 10000 39 210 02.08.2018 14:21
9 ar Ushuaia Clouds 10 1000 46 10000 9 320 02.08.2018 14:22
10 cn Peking Clouds 29 1000 75 10000 6 61 02.08.2018 14:23
11 vn Hanoi Clouds 26 1002 88 8000 9 100 02.08.2018 14:21
12 sa Riad Clear 34 1002 14 6000 9 290 02.08.2018 14:21
13 ie Dublin Clouds 18 1003 82 10000 26 220 02.08.2018 14:21
14 th Bangkok Rain 27 1003 85 10000 21 203 02.08.2018 14:21
15 cn Shanghai Rain 26 1004 94 8000 32 170 02.08.2018 14:21
16 gl Nuuk Clouds 8 1004 87 10000 13 300 02.08.2018 14:22
17 in Jagatsukh Clouds 19 1004 50 10000 2 19 02.08.2018 14:22
18 no Hammerfest Clouds 11 1004 93 8000 13 270 02.08.2018 14:22
19 fi Rovaniemi Clouds 12 1005 100 10000 9 190 02.08.2018 14:21
20 no Oslo Clouds 13 1006 68 10000 4 140 02.08.2018 14:23
21 mv Male Clouds 29 1006 79 10000 18 230 02.08.2018 14:23
22 af Kabul Clear 25 1006 16 10000 31 320 02.08.2018 14:21
23 eg Kairo Clear 28 1007 61 10000 13 340 02.08.2018 14:22
24 gr Athen Clear 25 1007 57 10000 4 349 02.08.2018 14:22
25 us New York Clouds 27 1007 61 10000 44 260 02.08.2018 14:22
26 us Death Valley Clear 44 1008 6 10000 13 156 02.08.2018 14:22
27 mn Uliastai Rain 13 1008 64 10000 10 123 02.08.2018 14:23
28 id Jakarta Haze 25 1008 88 3000 5 170 02.08.2018 14:22
29 us Fairbanks Clouds 16 1008 77 10000 8 200 02.08.2018 14:23
30 gb Manchester Clouds 17 1008 82 10000 18 200 02.08.2018 14:21
31 it Rom Rain 23 1008 49 10000 4 220 02.08.2018 14:23
32 ph Manila Clouds 27 1008 88 10000 5 100 02.08.2018 14:21
33 it Mailand Clear 22 1009 35 10000 5 330 02.08.2018 14:21
34 pg Port Moresby Clouds 23 1009 94 10000 5 0 02.08.2018 14:21
35 fr Nizza Clouds 23 1009 50 10000 9 340 02.08.2018 14:22
36 tr Alanya Clear 24 1009 36 7000 15 260 02.08.2018 14:22
37 us Nome Clouds 12 1009 62 10000 17 230 02.08.2018 14:23
38 fi Helsinki Fog 15 1009 100 8000 4 240 02.08.2018 14:21
39 sb Honiara Clouds 25 1009 83 10000 4 180 02.08.2018 14:22
40 au Alice Springs Clouds 20 1010 24 10000 15 360 02.08.2018 14:21
41 se Stockholm Clouds 15 1010 67 10000 8 270 02.08.2018 14:23
42 it Palermo Clouds 25 1010 61 10000 24 250 02.08.2018 14:22
43 es Sevilla Clear 29 1010 45 10000 17 280 02.08.2018 14:22
44 ru Anadyr Clouds 13 1010 66 10000 14 340 02.08.2018 14:23
45 tr Istanbul Clear 22 1010 69 10000 18 60 02.08.2018 14:23
46 es Tarifa Clouds 25 1010 69 10000 18 40 02.08.2018 14:21
47 kr Seoul Clouds 26 1011 94 10000 4 149 02.08.2018 14:21
48 ca Montreal Rain 21 1011 100 10000 18 110 02.08.2018 14:22
49 tr Ankara Clear 21 1011 35 10000 2 0 02.08.2018 14:23
50 bg Warna Clouds 20 1011 77 10000 13 40 02.08.2018 14:21
51 au Darwin Clouds 21 1011 94 10000 5 80 02.08.2018 14:22
52 ma Marrakesch Clear 27 1012 51 10000 4 0 02.08.2018 14:23
53 us Las Vegas Clear 40 1012 7 10000 11 120 02.08.2018 14:21
54 bg Sofia Clear 21 1012 72 10000 18 120 02.08.2018 14:21
55 br Manaus Clouds 31 1012 62 10000 2 283 02.08.2018 14:21
56 cn Lhasa Clouds 12 1012 63 10000 6 144 02.08.2018 14:22
57 ec San Cristobal Clouds 23 1012 73 10000 18 180 02.08.2018 14:22
58 es Las Palmas de Gran Canaria Clouds 23 1013 73 10000 39 360 02.08.2018 14:21
59 de Oberstdorf Clouds 11 1013 71 10000 4 140 02.08.2018 14:21
60 au Sydney Clear 7 1013 49 10000 22 340 02.08.2018 14:22
61 ma Casablanca Clouds 22 1013 88 10000 9 330 02.08.2018 14:23
62 ru Amderma Clouds 11 1013 86 10000 31 244 02.08.2018 14:23
63 pt Lissabon Clear 21 1013 64 10000 26 320 02.08.2018 14:22
64 us Miami Clear 32 1014 59 10000 17 163 02.08.2018 14:23
65 mx Veracruz Clouds 32 1014 62 10000 18 60 02.08.2018 14:21
66 de Braunschweig Clouds 13 1014 80 10000 4 245 02.08.2018 14:21
67 es Barcelona Clouds 24 1014 73 10000 9 190 02.08.2018 14:22
68 cd Kisangani Clouds 22 1014 94 10000 3 314 02.08.2018 14:23
69 us Los Angeles Clear 27 1014 54 10000 14 217 02.08.2018 14:22
70 gb London Clouds 17 1014 63 10000 21 230 02.08.2018 14:22
71 fj Suva Clouds 25 1014 69 10000 8 180 02.08.2018 14:21
72 mn Ulaanbaatar Clouds 11 1014 87 10000 4 0 02.08.2018 14:23
73 ua Kiew Clouds 21 1015 56 10000 7 110 02.08.2018 14:21
74 es Madrid Clouds 28 1015 28 10000 4 0 02.08.2018 14:23
75 de Flensburg Clouds 13 1015 71 10000 13 200 02.08.2018 14:21
76 ar Esquel Smoke 6 1015 70 10000 5 320 02.08.2018 14:22
77 de Emden Clouds 15 1015 68 10000 5 151 02.08.2018 14:21
78 bo Potisi Clear 12 1015 42 10000 12 64 02.08.2018 14:22
79 de Hamburg Clouds 13 1016 81 10000 2 60 02.08.2018 14:21
80 at Wien Clouds 14 1016 82 10000 31 300 02.08.2018 14:22
81 de Helgoland Clouds 14 1016 71 10000 9 150 02.08.2018 14:22
82 de Freiburg Clouds 15 1016 80 10000 3 53 02.08.2018 14:22
83 bs Nassau Clouds 30 1016 74 10000 15 140 02.08.2018 14:22
84 de Bremen Clouds 14 1016 82 10000 4 140 02.08.2018 14:22
85 us Tucson Clear 40 1016 14 10000 8 240 02.08.2018 14:21
86 es Palma de Mallorca Clouds 24 1016 69 10000 8 140 02.08.2018 14:22
87 ck Avarua Clouds 24 1016 78 10000 22 80 02.08.2018 14:22
88 jp Nagasaki Clouds 27 1016 88 10000 11 130 02.08.2018 14:21
89 et Addis Abeba Rain 12 1017 92 637 7 224 02.08.2018 14:23
90 de Hannover Clouds 15 1017 76 10000 2 0 02.08.2018 14:21
91 de Dresden Clouds 15 1017 72 10000 5 250 02.08.2018 14:22
92 de Berlin Clouds 16 1017 72 10000 4 0 02.08.2018 14:21
93 de Magdeburg Clouds 13 1017 69 10000 2 236 02.08.2018 14:22
94 de Frankfurt Clouds 17 1017 67 10000 8 230 02.08.2018 14:22
95 fr Paris Clouds 19 1017 42 10000 4 40 02.08.2018 14:22
96 de Köln Clouds 17 1017 66 10000 2 0 02.08.2018 14:21
97 jp Tokio Clouds 28 1017 83 10000 8 160 02.08.2018 14:22
98 au Perth Clouds 10 1017 93 10000 11 190 02.08.2018 14:21
99 de Torfhaus Clouds 13 1017 76 10000 10 52 02.08.2018 14:22
100 do Santo Domingo Clear 30 1018 92 10000 7 140 02.08.2018 14:21
101 de Trier Clear 14 1018 54 10000 2 118 02.08.2018 14:21
102 ru Surgut Thunderstorm 24 1018 73 10000 7 240 02.08.2018 14:23
103 fr Bordeaux Clear 18 1018 59 10000 8 350 02.08.2018 14:21
104 ar Buenos Aires Clouds 19 1018 77 10000 11 100 02.08.2018 14:22
105 de Kassel Clouds 13 1018 71 10000 4 320 02.08.2018 14:21
106 cl Santiago Haze 20 1018 33 5000 9 300 02.08.2018 14:23
107 ru Jakutsk Clear 15 1018 67 10000 4 300 02.08.2018 14:22
108 us Chicago Clouds 21 1018 46 10000 18 20 02.08.2018 14:23
109 ch Bern Clouds 10 1019 100 10000 5 0 02.08.2018 14:23
110 us Honolulu Clouds 28 1019 51 10000 13 80 02.08.2018 14:22
111 nz Wellington Clouds 13 1019 76 10000 24 360 02.08.2018 14:23
112 us Denver Clouds 31 1019 25 10000 21 330 02.08.2018 14:21
113 uy Montevideo Clouds 23 1019 53 10000 8 360 02.08.2018 14:22
114 de Nürnberg Clouds 13 1019 93 10000 11 90 02.08.2018 14:21
115 de Stuttgart Clear 14 1019 82 10000 2 0 02.08.2018 14:22
116 de Hiddensee Clouds 13 1020 68 10000 19 242 02.08.2018 14:21
117 ru Moskau Clear 17 1020 77 10000 7 100 02.08.2018 14:22
118 ru Werchojansk Clear 16 1020 45 10000 4 140 02.08.2018 14:22
119 ad Andorra la Vella Clear 17 1021 25 10000 7 23 02.08.2018 14:22
120 ch Andermatt Clouds 5 1021 93 8922 8 355 02.08.2018 14:23
121 at Innsbruck Clouds 12 1021 93 10000 4 0 02.08.2018 14:23
122 ke Nairobi Clouds 15 1024 72 10000 9 260 02.08.2018 14:22
123 mg Antananarivo Clouds 8 1025 100 10000 5 60 02.08.2018 14:21
124 br Rio de Janeiro Clear 21 1026 73 10000 8 150 02.08.2018 14:22
125 za Kapstadt Clear 10 1027 70 10000 24 150 02.08.2018 14:22
126 mx Mexiko Stadt Clouds 24 1027 41 10000 11 40 02.08.2018 14:21
127 pe Cusco Smoke 20 1031 8 10000 15 20 02.08.2018 14:23
128 bo La Paz Clouds 17 1038 14 10000 18 150 02.08.2018 14:22